Regional Weather Roundup
Issued by NWS

Home | Current Version | Previous Version | Text Only | Print | Product List | Glossary On
Versions: 1 2 3 4 5 6 7 8 9 10 11 12 13 14 15 16 17 18 19 20 21 22 23 24 25 26 27 28 29 30 31 32 33 34 35 36 37 38 39 40 41 42 43 44 45 46 47 48 49 50
000
ASUS45 KCYS 240110
RWRWY

WYOMING REGIONAL WEATHER ROUNDUP
NATIONAL WEATHER SERVICE CHEYENNE WY
700 PM MDT TUE SEP 23 2014

NOTE:  "FAIR" INDICATES FEW OR NO CLOUDS BELOW 12,000 FEET
WITH NO SIGNIFICANT WEATHER AND/OR OBSTRUCTIONS TO VISIBILITY.

WYZ001-240200-
YELLOWSTONE NATIONAL PARK

CITY           SKY/WX    TMP DP  RH WIND       PRES   REMARKS
LK YELLOWSTONE   N/A     56  44  64 CALM      30.33R
W YELLOWSTONE  NOT AVBL

$$
WYZ002>013-054>058-071-098>099-240200-
NORTHERN WYOMING

CITY           SKY/WX    TMP DP  RH WIND       PRES   REMARKS
JACKSON        CLEAR     64  46  52 S6        30.23S
CODY           PTCLDY    73  43  33 W6        30.08S
GREYBULL       LGT RAIN  76  44  32 S8        30.00S
WORLAND        CLEAR     75  43  31 SE3       30.03S
SHERIDAN       CLEAR     65  50  58 W5        30.03R
BUFFALO        CLEAR     64  46  52 SW6       30.10R
GILLETTE       CLEAR     66  44  45 NW8       30.04R
HULETT         FAIR      72  46  40 MISG      30.03
NEWCASTLE      FAIR      72  39  30 N10       30.02

$$
WYZ014>020-022>026-101>103-240200-
CENTRAL WYOMING

CITY           SKY/WX    TMP DP  RH WIND       PRES   REMARKS
BIG PINEY      CLEAR     66  41  40 N9        30.26S
PINEDALE       CLEAR     63  37  39 W8        30.27S
DUBOIS         FAIR      61  36  39 W9        30.25R
LANDER         PTCLDY    69  39  33 S5        30.11S
RIVERTON       CLEAR     71  35  26 NE5       30.13S
CASPER         CLEAR     67  39  35 N8        30.12R
DOUGLAS        PTCLDY    71  41  33 NW7       30.10R

$$
WYZ021-027>030-104>119-240200-
SOUTHERN WYOMING

CITY           SKY/WX    TMP DP  RH WIND       PRES   REMARKS
EVANSTON       PTCLDY    66  39  37 W9        30.29S
KEMMERER       CLEAR     63  39  42 W7        30.30S
FORT BRIDGER   FAIR      69  42  37 NW6       30.30S
ROCK SPRINGS   CLEAR     68  38  33 W13       30.25R
DIXON          FAIR      67  47  50 W3        30.26S
RAWLINS        MOCLDY    67  38  34 W9        30.23R
SARATOGA       FAIR      61  43  51 SW8       30.26S
LARAMIE        CLEAR     59  40  49 W8        30.25R
CHEYENNE       PTCLDY    69  39  33 NW9       30.17R
TORRINGTON     PTCLDY    72  47  40 N5        30.02S
PINE BLUFFS    FAIR      64  43  45 NW5       30.12R

$$



USA.gov is the U.S. government's official web portal to all federal, state and local government web resources and services.